{"data":{"norad_id":63458,"epoch":"2026-09-20T10:53:28.615488Z","epoch_age_seconds":159644,"freshness":"FRESH","line1":"1 63458U 25069AB  26263.45380342  .00014581  00000+0  44201-3 0  9998","line2":"2 63458  53.1597 310.0018 0002178 104.1222 256.0022 15.34388201 83330","mean_motion":15.34388201,"eccentricity":0.0002178,"inclination_deg":53.1597,"raan_deg":310.0018,"arg_perigee_deg":104.1222,"mean_anomaly_deg":256.0022,"bstar":0.00044201,"rev_number":8333,"period_min":93.848479743361,"perigee_km":461.24836690394,"apogee_km":464.22825218878,"semimajor_km":6840.8753095464,"source":"CELESTRAK","updated_at":"2026-09-21T09:00:35.006586Z"}}